Weather History for KTRK - February, 2012

Change the Weather History Date:

Monday, February 13, 2012

  Actual Average Record
Temperature  
Mean Temperature 28 °F -  
Max Temperature 32 °F 44 °F 69 °F (2015)
Min Temperature 23 °F 19 °F -9 °F (1949)
Degree Days  
Heating Degree Days 38    
Moisture  
Dew Point 24 °F    
Average Humidity 80    
Maximum Humidity 100    
Minimum Humidity 55    
Precipitation  
Precipitation 0.05 in - - ()
Snow  
Snow 0.00 in - - ()
Snow Depth 2.00 in    
Sea Level Pressure  
Sea Level Pressure 29.82 in    
Wind  
Wind Speed 7 mph (West)    
Max Wind Speed 15 mph    
Max Gust Speed 21 mph    
Visibility 7 miles    
Events Snow    
Averages and records for this station are not official NWS values.
T = Trace of Precipitation, MM = Missing Value Source: NWS Daily Summary

Daily Weather History Graph

Daily Weather History Graph

Search for Another Location

Airport or City:

Trip Planner

Search our weather history database for the weather conditions in past years. The results will help you decide how hot, cold, wet, or windy it might be!

Date:

Astronomy

Feb. 13, 2012 Rise Set
Actual Time 6:55 AM PST 5:34 PM PST
Civil Twilight 6:27 AM PST 6:02 PM PST
Nautical Twilight 5:56 AM PST 6:33 PM PST
Astronomical Twilight 5:25 AM PST 7:05 PM PST
Moon No Moon Rise 10:00 AM PST (2/13)
Length of Visible Light 11h 34m
Length of Day
10h 39m
Waning Gibbous, 60% of the Moon is Illuminated
Feb 13
Waning Gibbous
Feb 14
Last Quarter
Feb 21
New
Feb 29
First Quarter
Mar 8
Full

Hourly Weather History & Observations

Time (PST) Temp. Windchill Dew Point Humidity Pressure Visibility Wind Dir Wind Speed Gust Speed Precip Events Conditions
12:15 AM 32.0 °F 23.0 °F 24.8 °F 75% 29.82 in 10.0 mi South 11.5 mph - N/A   Mostly Cloudy
12:35 AM 32.0 °F 26.4 °F 26.6 °F 80% 29.81 in 3.0 mi South 5.8 mph - N/A   Haze
12:55 AM 32.0 °F 23.6 °F 24.8 °F 75% 29.79 in 10.0 mi SSW 10.4 mph - N/A   Mostly Cloudy
1:15 AM 32.0 °F 23.6 °F 24.8 °F 75% 29.78 in 10.0 mi SSW 10.4 mph 19.6 mph N/A   Mostly Cloudy
1:35 AM 32.0 °F 23.6 °F 24.8 °F 75% 29.77 in 6.0 mi SSW 10.4 mph 20.7 mph N/A   Mostly Cloudy
1:55 AM 32.0 °F 24.8 °F 24.8 °F 75% 29.76 in 10.0 mi SW 8.1 mph 16.1 mph N/A   Mostly Cloudy
2:15 AM 32.0 °F 25.6 °F 24.8 °F 75% 29.76 in 4.0 mi WSW 6.9 mph - N/A Snow Light Snow
2:35 AM 32.0 °F 25.6 °F 24.8 °F 75% 29.75 in 7.0 mi South 6.9 mph - N/A Snow Light Snow
2:55 AM 32.0 °F 21.6 °F 24.8 °F 75% 29.75 in 3.0 mi South 15.0 mph 18.4 mph N/A Snow Light Snow
3:15 AM 30.2 °F 21.9 °F 26.6 °F 86% 29.76 in 1.8 mi South 9.2 mph - N/A Snow Light Snow
3:35 AM 30.2 °F 24.3 °F 28.4 °F 93% 29.75 in 1.2 mi SSE 5.8 mph - N/A Snow Light Snow
3:55 AM 30.2 °F 25.4 °F 28.4 °F 93% 29.74 in 1.2 mi South 4.6 mph - N/A Snow Light Snow
4:15 AM 28.4 °F 22.2 °F 28.4 °F 100% 29.73 in 1.2 mi SW 5.8 mph - N/A Snow Light Snow
4:35 AM 28.4 °F 23.3 °F 28.4 °F 100% 29.74 in 0.8 mi SW 4.6 mph - 0.01 in Snow Light Snow
4:55 AM 28.4 °F 22.2 °F 28.4 °F 100% 29.74 in 0.5 mi NW 5.8 mph - 0.02 in Snow Snow
5:15 AM 28.4 °F - 26.6 °F 93% 29.74 in 1.5 mi Calm Calm - 0.01 in Snow Light Snow
5:35 AM 28.4 °F 23.3 °F 26.6 °F 93% 29.75 in 2.0 mi ENE 4.6 mph - 0.02 in Snow Light Snow
6:45 AM 24.8 °F - 21.2 °F 86% 29.97 in 10.0 mi Calm Calm - N/A   Mostly Cloudy
7:45 AM 23.0 °F 14.7 °F 17.6 °F 80% 29.78 in 10.0 mi WSW 6.9 mph - N/A   Mostly Cloudy
8:50 AM 26.6 °F 20.0 °F 17.6 °F 69% 29.78 in 10.0 mi SW 5.8 mph - N/A   Mostly Cloudy
9:50 AM 28.4 °F 21.2 °F 17.6 °F 64% 29.78 in 10.0 mi South 6.9 mph - N/A   Mostly Cloudy
11:50 AM 28.4 °F 21.2 °F 19.4 °F 69% 29.80 in 10.0 mi NW 6.9 mph - N/A Snow Light Snow
12:50 PM 32.0 °F 24.2 °F 17.6 °F 55% 29.80 in 8.0 mi West 9.2 mph - N/A   Overcast
1:45 PM 32.0 °F 27.5 °F 17.6 °F 55% 29.79 in 10.0 mi NW 4.6 mph - N/A   Mostly Cloudy
2:55 PM 32.0 °F - 19.4 °F 60% 29.81 in 10.0 mi Calm Calm - N/A   Overcast
4:50 PM 32.0 °F 25.6 °F 19.4 °F 60% 29.80 in 10.0 mi West 6.9 mph - N/A   Overcast
4:55 PM 32.0 °F 25.6 °F 19.4 °F 60% 29.82 in 10.0 mi West 6.9 mph - N/A   Overcast
5:15 PM 32.0 °F 26.4 °F 19.4 °F 60% 29.83 in 10.0 mi WNW 5.8 mph - N/A   Overcast
5:35 PM 32.0 °F 24.8 °F 21.2 °F 64% 29.84 in 10.0 mi WNW 8.1 mph - N/A   Overcast
5:55 PM 32.0 °F 25.6 °F 23.0 °F 69% 29.84 in 10.0 mi WNW 6.9 mph - N/A   Overcast
6:15 PM 32.0 °F 26.4 °F 23.0 °F 69% 29.85 in 10.0 mi WNW 5.8 mph - N/A   Overcast
6:35 PM 32.0 °F 28.7 °F 23.0 °F 69% 29.85 in 10.0 mi West 3.5 mph - N/A   Overcast
6:55 PM 32.0 °F 25.6 °F 24.8 °F 75% 29.86 in 10.0 mi WNW 6.9 mph - N/A   Overcast
7:15 PM 30.2 °F 25.4 °F 24.8 °F 80% 29.87 in 2.5 mi NW 4.6 mph - N/A Snow Light Snow
7:35 PM 28.4 °F 24.6 °F 26.6 °F 93% 29.87 in 2.5 mi NE 3.5 mph - N/A Snow Light Snow
7:55 PM 28.4 °F - 26.6 °F 93% 29.88 in 5.0 mi Calm Calm - N/A Snow Light Snow
8:15 PM 28.4 °F 24.6 °F 26.6 °F 93% 29.87 in 6.0 mi ENE 3.5 mph - 0.01 in Snow Light Snow
8:35 PM 28.4 °F - 26.6 °F 93% 29.88 in 10.0 mi Calm Calm - 0.01 in   Overcast
8:55 PM 28.4 °F - 26.6 °F 93% 29.88 in 7.0 mi Calm Calm - 0.01 in Snow Light Snow
9:15 PM 28.4 °F 24.6 °F 26.6 °F 93% 29.89 in 10.0 mi NW 3.5 mph - N/A   Overcast
9:35 PM 28.4 °F - 26.6 °F 93% 29.89 in 10.0 mi Calm Calm - N/A   Overcast
9:55 PM 28.4 °F 23.3 °F 24.8 °F 86% 29.89 in 10.0 mi NW 4.6 mph - N/A   Overcast
10:15 PM 28.4 °F 23.3 °F 24.8 °F 86% 29.90 in 10.0 mi NNW 4.6 mph - N/A   Overcast
10:35 PM 28.4 °F 23.3 °F 24.8 °F 86% 29.90 in 10.0 mi North 4.6 mph - N/A   Overcast
10:55 PM 28.4 °F 24.6 °F 24.8 °F 86% 29.90 in 10.0 mi North 3.5 mph - N/A   Overcast
11:15 PM 28.4 °F 24.6 °F 24.8 °F 86% 29.90 in 10.0 mi NNE 3.5 mph - N/A   Overcast
11:35 PM 28.4 °F - 24.8 °F 86% 29.90 in 10.0 mi Calm Calm - N/A   Overcast
11:55 PM 28.4 °F 22.2 °F 23.0 °F 80% 29.90 in 10.0 mi NNW 5.8 mph - N/A   Overcast